Hourly Weather Roundup
Issued by NWS Central Illinois

Home | Current Version | Previous Version | Text Only | Print | Product List | Glossary On
Versions: 1 2 3 4 5 6 7 8 9 10 11 12 13 14 15 16 17 18 19 20 21 22 23 24 25 26 27 28 29 30 31 32 33 34 35 36 37 38 39 40 41 42 43 44 45 46 47 48 49 50
000
NZUS43 KILX 041910
HWRILX

AREA WEATHER ROUNDUP
NATIONAL WEATHER SERVICE, LINCOLN IL
200 PM CDT WED MAY 04 2016


CITY           SKY/WX    TMP DP  RH WIND       PRES   REMARKS
BLOOMINGTON    PTSUNNY   55  41  59 N22G29    29.82S
CHAMPAIGN      MOSUNNY   59  40  49 NW25      29.77S
DANVILLE       CLOUDY    53  44  71 N16       29.75R
DECATUR        PTSUNNY   59  42  53 NW18G33   29.81R
EFFINGHAM      LGT RAIN  56  43  61 W15G30    29.81R
FLORA          PTSUNNY   62  42  46 NW15G22   29.79R
GALESBURG      PTSUNNY   58  38  49 N20G28    29.86S
JACKSONVILLE   CLOUDY    61  41  47 NW16G22   29.85S
LACON          CLOUDY    54  37  52 N15       29.83S
LAWRENCEVILLE  PTSUNNY   62  43  49 NW22G29   29.75R
LITCHFIELD     MOSUNNY   60  41  49 N18G29    29.83R
$$


CITY           SKY/WX    TMP DP  RH WIND       PRES   REMARKS
LINCOLN        CLOUDY    58  41  51 N8G24     29.83S
MACOMB         PTSUNNY   60  37  41 N23G31    29.89R
MATTOON        PTSUNNY   58  42  55 N18G28    29.77R
MT CARMEL AP   MOSUNNY   63  43  48 NW21      29.74S
OLNEY-NOBLE AP PTSUNNY   61  45  55 NW17G23   29.77S
PARIS          CLOUDY    56  45  67 NW12      29.77S
PEORIA         CLOUDY    56  37  49 N12G29    29.84S
PONTIAC        PTSUNNY   56  43  61 N22       29.82R
RANTOUL        CLOUDY    57  42  55 N24       29.78R
ROBINSON       MOSUNNY   60  45  57 N15G23    29.76S
SPRINGFIELD    CLOUDY    62  42  47 N14G23    29.84S
TAYLORVILLE    CLOUDY    58  42  57 NW24G30   29.83R
$$

...REGIONAL REPORTS...


CITY           SKY/WX    TMP DP  RH WIND       PRES   REMARKS
CHICAGO O`HARE CLOUDY    50  37  61 N17       29.79R
KANKAKEE       CLOUDY    52  39  60 N13G18    29.79S
MOLINE         MOSUNNY   62  35  36 N14G25    29.85F
MOUNT STERLING PTSUNNY   61  40  45 N16G29    29.87S
MOUNT VERNON   PTSUNNY   64  43  45 N13G18    29.80R
PITTSFIELD     PTSUNNY   61  44  54 N14G22    29.88S
QUINCY         PTSUNNY   63  40  42 N16G29    29.88S
ROCKFORD       CLOUDY    54  37  52 N18G26    29.83S
$$


CITY           SKY/WX    TMP DP  RH WIND       PRES   REMARKS
BURLINGTON     PTSUNNY   61  39  44 N18G26    29.88F
CEDAR RAPIDS   SUNNY     62  36  37 N24G33    29.89F
DES MOINES     MOSUNNY   65  31  28 N21G28    29.97F
KIRKSVILLE     SUNNY     65  35  33 N17G28    29.94S
OTTUMWA        SUNNY     62  36  37 NW17G30   29.94S
ST LOUIS       PTSUNNY   67  40  37 NW17G23   29.83S
$$


CITY           SKY/WX    TMP DP  RH WIND       PRES   REMARKS
TERRE HAUTE    PTSUNNY   59  41  51 NW17      29.75R
EVANSVILLE     PTSUNNY   63  45  51 N10G26    29.74R
INDIANAPOLIS   PTSUNNY   53  40  61 NW20G31   29.73R
LAFAYETTE      CLOUDY    53  39  59 N23G29    29.75R
MADISON        PTSUNNY   57  35  43 N16       29.81F
MILWAUKEE      CLOUDY    45  37  73 NE9G21    29.80S
$$





USA.gov is the U.S. government's official web portal to all federal, state and local government web resources and services.